Time,TemperatureF,DewpointF,PressureIn,WindDirection,WindDirectionDegrees,WindSpeedMPH,WindSpeedGustMPH,Humidity,HourlyPrecipIn,Conditions,Clouds,dailyrainin,SolarRadiationWatts/m^2,SoftwareType,DateUTC
2013-11-20 00:00:00,42.2,29.7,30.34,NNE,23,6.0,6.0,61,0.00,,,0.00,0,Wunderground v.1.15,2013-11-20 05:00:00,
2013-11-20 00:02:00,42.2,29.3,30.34,NE,55,5.0,6.0,60,0.00,,,0.00,0,Wunderground v.1.15,2013-11-20 05:02:00,
2013-11-20 00:04:00,42.2,29.3,30.34,ENE,58,5.0,7.0,60,0.00,,,0.00,0,Wunderground v.1.15,2013-11-20 05:04:00,
2013-11-20 00:10:00,42.2,29.3,30.34,East,89,6.0,7.0,60,0.00,,,0.00,0,Wunderground v.1.15,2013-11-20 05:10:00,
2013-11-20 00:14:00,42.2,29.3,30.34,East,89,6.0,10.0,60,0.00,,,0.00,0,Wunderground v.1.15,2013-11-20 05:14:00,
2013-11-20 00:20:00,41.9,29.0,30.34,NNE,28,5.0,5.0,60,0.00,,,0.00,0,Wunderground v.1.15,2013-11-20 05:20:00,
2013-11-20 00:24:00,41.9,29.0,30.34,NE,52,5.0,7.0,60,0.00,,,0.00,0,Wunderground v.1.15,2013-11-20 05:24:00,
2013-11-20 00:30:00,41.6,29.1,30.34,NE,51,5.0,5.0,61,0.00,,,0.00,0,Wunderground v.1.15,2013-11-20 05:30:00,
2013-11-20 00:36:00,41.3,28.9,30.34,ENE,76,4.0,8.0,61,0.00,,,0.00,0,Wunderground v.1.15,2013-11-20 05:36:00,
2013-11-20 00:40:00,41.3,28.9,30.34,NE,44,4.0,4.0,61,0.00,,,0.00,0,Wunderground v.1.15,2013-11-20 05:40:00,
2013-11-20 00:46:00,41.1,29.1,30.35,ENE,59,4.0,6.0,62,0.00,,,0.00,0,Wunderground v.1.15,2013-11-20 05:46:00,
2013-11-20 00:52:00,40.9,28.9,30.35,NNE,32,4.0,4.0,62,0.00,,,0.00,0,Wunderground v.1.15,2013-11-20 05:52:00,
2013-11-20 00:58:00,40.6,28.6,30.35,NE,44,4.0,5.0,62,0.00,,,0.00,0,Wunderground v.1.15,2013-11-20 05:58:00,
2013-11-20 01:04:00,40.5,28.5,30.35,NE,51,4.0,4.0,62,0.00,,,0.00,0,Wunderground v.1.15,2013-11-20 06:04:00,
2013-11-20 01:10:00,40.3,28.3,30.35,NE,49,5.0,5.0,62,0.00,,,0.00,0,Wunderground v.1.15,2013-11-20 06:10:00,
2013-11-20 01:16:00,40.3,28.7,30.34,ENE,69,6.0,7.0,63,0.00,,,0.00,0,Wunderground v.1.15,2013-11-20 06:16:00,
2013-11-20 01:22:00,40.1,28.5,30.34,NE,38,4.0,5.0,63,0.00,,,0.00,0,Wunderground v.1.15,2013-11-20 06:22:00,
2013-11-20 01:28:00,39.8,28.6,30.34,NE,49,4.0,6.0,64,0.00,,,0.00,0,Wunderground v.1.15,2013-11-20 06:28:00,
2013-11-20 01:34:00,39.6,28.4,30.35,NNE,27,4.0,5.0,64,0.00,,,0.00,0,Wunderground v.1.15,2013-11-20 06:34:00,
2013-11-20 01:40:00,39.5,28.3,30.35,NNE,32,5.0,7.0,64,0.00,,,0.00,0,Wunderground v.1.15,2013-11-20 06:40:00,
2013-11-20 01:46:00,39.5,28.7,30.34,NNE,14,5.0,7.0,65,0.00,,,0.00,0,Wunderground v.1.15,2013-11-20 06:46:00,
2013-11-20 01:52:00,39.3,28.9,30.34,NNE,32,6.0,7.0,66,0.00,,,0.00,0,Wunderground v.1.15,2013-11-20 06:52:00,
2013-11-20 01:58:00,39.3,28.9,30.34,NE,35,6.0,9.0,66,0.00,,,0.00,0,Wunderground v.1.15,2013-11-20 06:58:00,
2013-11-20 02:04:00,39.3,28.9,30.35,North,4,5.0,7.0,66,0.00,,,0.00,0,Wunderground v.1.15,2013-11-20 07:04:00,
2013-11-20 02:10:00,39.2,28.8,30.35,NE,44,5.0,6.0,66,0.00,,,0.00,0,Wunderground v.1.15,2013-11-20 07:10:00,
2013-11-20 02:16:00,39.2,28.8,30.35,NE,49,6.0,9.0,66,0.00,,,0.00,0,Wunderground v.1.15,2013-11-20 07:16:00,
2013-11-20 02:22:00,39.2,28.8,30.35,NNE,18,6.0,6.0,66,0.00,,,0.00,0,Wunderground v.1.15,2013-11-20 07:22:00,
2013-11-20 02:28:00,39.2,28.8,30.35,NNE,21,5.0,6.0,66,0.00,,,0.00,0,Wunderground v.1.15,2013-11-20 07:28:00,
2013-11-20 02:34:00,39.2,28.8,30.35,NNE,30,5.0,7.0,66,0.00,,,0.00,0,Wunderground v.1.15,2013-11-20 07:34:00,
2013-11-20 02:40:00,39.2,28.8,30.35,NNE,28,5.0,5.0,66,0.00,,,0.00,0,Wunderground v.1.15,2013-11-20 07:40:00,
2013-11-20 02:46:00,39.2,28.8,30.35,East,86,5.0,7.0,66,0.00,,,0.00,0,Wunderground v.1.15,2013-11-20 07:46:00,
2013-11-20 02:52:00,39.2,28.8,30.35,NE,41,6.0,7.0,66,0.00,,,0.00,0,Wunderground v.1.15,2013-11-20 07:52:00,
2013-11-20 02:58:00,39.2,28.8,30.35,North,6,6.0,7.0,66,0.00,,,0.00,0,Wunderground v.1.15,2013-11-20 07:58:00,
2013-11-20 03:04:00,39.1,28.7,30.36,North,11,5.0,8.0,66,0.00,,,0.00,0,Wunderground v.1.15,2013-11-20 08:04:00,
2013-11-20 03:10:00,39.1,28.7,30.36,NE,38,5.0,5.0,66,0.00,,,0.00,0,Wunderground v.1.15,2013-11-20 08:10:00,
2013-11-20 03:16:00,39.1,28.7,30.36,NE,56,5.0,7.0,66,0.00,,,0.00,0,Wunderground v.1.15,2013-11-20 08:16:00,
2013-11-20 03:22:00,39.1,28.7,30.36,NNE,31,6.0,6.0,66,0.00,,,0.00,0,Wunderground v.1.15,2013-11-20 08:22:00,
2013-11-20 03:28:00,39.1,28.3,30.36,NE,40,6.0,7.0,65,0.00,,,0.00,0,Wunderground v.1.15,2013-11-20 08:28:00,
2013-11-20 03:34:00,39.2,28.4,30.36,NE,41,6.0,7.0,65,0.00,,,0.00,0,Wunderground v.1.15,2013-11-20 08:34:00,
2013-11-20 03:40:00,39.2,28.4,30.36,NE,52,6.0,6.0,65,0.00,,,0.00,0,Wunderground v.1.15,2013-11-20 08:40:00,
2013-11-20 03:46:00,39.2,28.4,30.36,NE,34,6.0,10.0,65,0.00,,,0.00,0,Wunderground v.1.15,2013-11-20 08:46:00,
2013-11-20 03:52:00,39.2,28.4,30.36,NE,38,7.0,10.0,65,0.00,,,0.00,0,Wunderground v.1.15,2013-11-20 08:52:00,
2013-11-20 03:58:00,39.2,28.4,30.36,NNE,27,7.0,10.0,65,0.00,,,0.00,0,Wunderground v.1.15,2013-11-20 08:58:00,
2013-11-20 04:04:00,39.2,28.4,30.36,North,0,7.0,10.0,65,0.00,,,0.00,0,Wunderground v.1.15,2013-11-20 09:04:00,
2013-11-20 04:10:00,39.2,28.4,30.36,NE,34,7.0,7.0,65,0.00,,,0.00,0,Wunderground v.1.15,2013-11-20 09:10:00,
2013-11-20 04:16:00,39.2,28.4,30.36,NNE,20,6.0,9.0,65,0.00,,,0.00,0,Wunderground v.1.15,2013-11-20 09:16:00,
2013-11-20 04:22:00,39.2,28.4,30.36,NNE,24,7.0,10.0,65,0.00,,,0.00,0,Wunderground v.1.15,2013-11-20 09:22:00,
2013-11-20 04:28:00,39.2,28.4,30.36,North,4,7.0,10.0,65,0.00,,,0.00,0,Wunderground v.1.15,2013-11-20 09:28:00,
2013-11-20 04:34:00,39.2,28.4,30.36,ENE,65,6.0,7.0,65,0.00,,,0.00,0,Wunderground v.1.15,2013-11-20 09:34:00,
2013-11-20 04:40:00,39.2,28.4,30.36,ENE,58,6.0,6.0,65,0.00,,,0.00,0,Wunderground v.1.15,2013-11-20 09:40:00,
2013-11-20 04:46:00,39.2,28.4,30.36,NE,40,7.0,7.0,65,0.00,,,0.00,0,Wunderground v.1.15,2013-11-20 09:46:00,
2013-11-20 04:52:00,39.2,28.4,30.36,NNE,20,7.0,10.0,65,0.00,,,0.00,0,Wunderground v.1.15,2013-11-20 09:52:00,
2013-11-20 04:58:00,39.2,28.0,30.36,NNE,25,7.0,10.0,64,0.00,,,0.00,0,Wunderground v.1.15,2013-11-20 09:58:00,
2013-11-20 05:04:00,39.2,28.0,30.37,NE,35,7.0,7.0,64,0.00,,,0.00,0,Wunderground v.1.15,2013-11-20 10:04:00,
2013-11-20 05:10:00,39.2,28.4,30.37,NNE,16,5.0,5.0,65,0.00,,,0.00,0,Wunderground v.1.15,2013-11-20 10:10:00,
2013-11-20 05:16:00,39.1,28.3,30.38,North,350,5.0,6.0,65,0.00,,,0.00,0,Wunderground v.1.15,2013-11-20 10:16:00,
2013-11-20 05:22:00,39.1,28.3,30.38,ENE,58,6.0,10.0,65,0.00,,,0.00,0,Wunderground v.1.15,2013-11-20 10:22:00,
2013-11-20 05:28:00,39.1,28.3,30.38,NNE,13,6.0,10.0,65,0.00,,,0.00,0,Wunderground v.1.15,2013-11-20 10:28:00,
2013-11-20 05:34:00,39.1,28.3,30.39,NNE,24,7.0,7.0,65,0.00,,,0.00,0,Wunderground v.1.15,2013-11-20 10:34:00,
2013-11-20 05:40:00,38.9,28.1,30.39,NNE,20,7.0,8.0,65,0.00,,,0.00,0,Wunderground v.1.15,2013-11-20 10:40:00,
2013-11-20 05:46:00,38.9,28.1,30.39,ENE,58,8.0,8.0,65,0.00,,,0.00,0,Wunderground v.1.15,2013-11-20 10:46:00,
2013-11-20 05:52:00,38.9,28.1,30.39,NE,41,7.0,9.0,65,0.00,,,0.00,0,Wunderground v.1.15,2013-11-20 10:52:00,
2013-11-20 05:58:00,38.9,28.1,30.39,NNE,25,6.0,10.0,65,0.00,,,0.00,0,Wunderground v.1.15,2013-11-20 10:58:00,
2013-11-20 06:04:00,38.9,28.5,30.38,NE,48,7.0,10.0,66,0.00,,,0.00,0,Wunderground v.1.15,2013-11-20 11:04:00,
2013-11-20 06:11:00,38.8,28.4,30.38,NNE,25,8.0,8.0,66,0.00,,,0.00,0,Wunderground v.1.15,2013-11-20 11:11:00,
2013-11-20 06:16:00,38.8,28.4,30.37,NE,40,8.0,8.0,66,0.00,,,0.00,0,Wunderground v.1.15,2013-11-20 11:16:00,
2013-11-20 06:22:00,38.6,28.2,30.37,NE,47,7.0,7.0,66,0.00,,,0.00,0,Wunderground v.1.15,2013-11-20 11:22:00,
2013-11-20 06:28:00,38.5,28.1,30.37,NNE,28,8.0,11.0,66,0.00,,,0.00,0,Wunderground v.1.15,2013-11-20 11:28:00,
2013-11-20 06:34:00,38.3,28.3,30.38,North,354,7.0,7.0,67,0.00,,,0.00,0,Wunderground v.1.15,2013-11-20 11:34:00,
2013-11-20 06:40:00,38.3,28.3,30.38,NNE,28,6.0,7.0,67,0.00,,,0.00,0,Wunderground v.1.15,2013-11-20 11:40:00,
2013-11-20 06:46:00,38.2,28.6,30.39,NE,35,7.0,11.0,68,0.00,,,0.00,0,Wunderground v.1.15,2013-11-20 11:46:00,
2013-11-20 06:52:00,38.2,28.6,30.39,NNE,31,7.0,7.0,68,0.00,,,0.00,0,Wunderground v.1.15,2013-11-20 11:52:00,
2013-11-20 06:58:00,38.2,28.6,30.39,NNE,28,7.0,11.0,68,0.00,,,0.00,5,Wunderground v.1.15,2013-11-20 11:58:00,
2013-11-20 07:04:00,38.2,28.6,30.39,NNE,20,7.0,7.0,68,0.00,,,0.00,5,Wunderground v.1.15,2013-11-20 12:04:00,
2013-11-20 07:10:00,38.2,28.6,30.39,NNE,28,7.0,7.0,68,0.00,,,0.00,12,Wunderground v.1.15,2013-11-20 12:10:00,
2013-11-20 07:16:00,38.0,28.4,30.41,North,1,7.0,7.0,68,0.00,,,0.00,16,Wunderground v.1.15,2013-11-20 12:16:00,
2013-11-20 07:22:00,38.0,28.4,30.41,NNE,20,6.0,7.0,68,0.00,,,0.00,18,Wunderground v.1.15,2013-11-20 12:22:00,
2013-11-20 07:28:00,38.0,28.4,30.41,NW,311,7.0,10.0,68,0.00,,,0.00,23,Wunderground v.1.15,2013-11-20 12:28:00,
2013-11-20 07:34:00,38.0,28.4,30.42,North,8,5.0,6.0,68,0.00,,,0.00,25,Wunderground v.1.15,2013-11-20 12:34:00,
2013-11-20 07:41:00,38.0,28.4,30.42,NNE,25,5.0,7.0,68,0.00,,,0.00,21,Wunderground v.1.15,2013-11-20 12:41:00,
2013-11-20 07:46:00,37.9,28.3,30.43,NE,44,6.0,10.0,68,0.00,,,0.00,95,Wunderground v.1.15,2013-11-20 12:46:00,
2013-11-20 07:52:00,38.3,28.7,30.43,NE,41,6.0,7.0,68,0.00,,,0.00,118,Wunderground v.1.15,2013-11-20 12:52:00,
2013-11-20 07:58:00,38.6,28.6,30.43,NNE,20,7.0,12.0,67,0.00,,,0.00,26,Wunderground v.1.15,2013-11-20 12:58:00,
2013-11-20 08:04:00,38.8,28.8,30.42,NE,42,8.0,12.0,67,0.00,,,0.00,86,Wunderground v.1.15,2013-11-20 13:04:00,
2013-11-20 08:10:00,38.9,28.5,30.42,NNE,32,8.0,8.0,66,0.00,,,0.00,32,Wunderground v.1.15,2013-11-20 13:10:00,
2013-11-20 08:16:00,39.1,28.7,30.43,East,80,6.0,8.0,66,0.00,,,0.00,33,Wunderground v.1.15,2013-11-20 13:16:00,
2013-11-20 08:22:00,39.2,28.8,30.43,NE,34,7.0,10.0,66,0.00,,,0.00,33,Wunderground v.1.15,2013-11-20 13:22:00,
2013-11-20 08:28:00,39.3,28.9,30.43,NNE,30,8.0,11.0,66,0.00,,,0.00,35,Wunderground v.1.15,2013-11-20 13:28:00,
2013-11-20 08:34:00,40.1,29.3,30.45,ENE,68,7.0,12.0,65,0.00,,,0.00,239,Wunderground v.1.15,2013-11-20 13:34:00,
2013-11-20 08:40:00,41.1,29.5,30.45,NNE,23,9.0,9.0,63,0.00,,,0.00,255,Wunderground v.1.15,2013-11-20 13:40:00,
2013-11-20 08:46:00,42.1,29.6,30.45,ENE,59,8.0,10.0,61,0.00,,,0.00,271,Wunderground v.1.15,2013-11-20 13:46:00,
2013-11-20 08:52:00,42.9,30.0,30.45,North,11,7.0,8.0,60,0.00,,,0.00,289,Wunderground v.1.15,2013-11-20 13:52:00,
2013-11-20 08:58:00,43.2,29.8,30.45,NNE,13,8.0,13.0,59,0.00,,,0.00,303,Wunderground v.1.15,2013-11-20 13:58:00,
2013-11-20 09:04:00,43.3,30.3,30.45,ENE,59,9.0,9.0,60,0.00,,,0.00,317,Wunderground v.1.15,2013-11-20 14:04:00,
2013-11-20 09:10:00,44.1,30.7,30.45,NNE,16,9.0,10.0,59,0.00,,,0.00,333,Wunderground v.1.15,2013-11-20 14:10:00,
2013-11-20 09:16:00,43.9,30.1,30.45,NNE,32,10.0,14.0,58,0.00,,,0.00,292,Wunderground v.1.15,2013-11-20 14:16:00,
2013-11-20 09:22:00,43.6,29.8,30.45,North,11,10.0,12.0,58,0.00,,,0.00,215,Wunderground v.1.15,2013-11-20 14:22:00,
2013-11-20 09:28:00,43.3,29.9,30.45,NNE,14,11.0,17.0,59,0.00,,,0.00,357,Wunderground v.1.15,2013-11-20 14:28:00,
2013-11-20 09:34:00,44.6,30.3,30.46,NNE,27,10.0,13.0,57,0.00,,,0.00,405,Wunderground v.1.15,2013-11-20 14:34:00,
2013-11-20 09:40:00,45.1,30.8,30.46,NNE,20,10.0,13.0,57,0.00,,,0.00,399,Wunderground v.1.15,2013-11-20 14:40:00,
2013-11-20 09:46:00,45.2,30.4,30.45,NNE,20,11.0,14.0,56,0.00,,,0.00,412,Wunderground v.1.15,2013-11-20 14:46:00,
2013-11-20 09:52:00,45.8,31.4,30.45,NNE,24,10.0,10.0,57,0.00,,,0.00,422,Wunderground v.1.15,2013-11-20 14:52:00,
2013-11-20 09:58:00,46.2,30.9,30.45,NNE,28,10.0,11.0,55,0.00,,,0.00,431,Wunderground v.1.15,2013-11-20 14:58:00,
2013-11-20 10:04:00,46.8,31.5,30.46,NE,52,9.0,9.0,55,0.00,,,0.00,445,Wunderground v.1.15,2013-11-20 15:04:00,
2013-11-20 10:10:00,46.8,31.0,30.46,ENE,76,8.0,12.0,54,0.00,,,0.00,454,Wunderground v.1.15,2013-11-20 15:10:00,
2013-11-20 10:16:00,47.3,31.9,30.46,NNE,23,9.0,12.0,55,0.00,,,0.00,457,Wunderground v.1.15,2013-11-20 15:16:00,
2013-11-20 10:22:00,47.7,31.4,30.46,North,0,9.0,10.0,53,0.00,,,0.00,475,Wunderground v.1.15,2013-11-20 15:22:00,
2013-11-20 10:28:00,48.0,31.7,30.46,ENE,69,9.0,10.0,53,0.00,,,0.00,484,Wunderground v.1.15,2013-11-20 15:28:00,
2013-11-20 10:34:00,48.0,31.7,30.46,ENE,68,7.0,10.0,53,0.00,,,0.00,494,Wunderground v.1.15,2013-11-20 15:34:00,
2013-11-20 10:40:00,48.3,32.4,30.46,NE,54,7.0,7.0,54,0.00,,,0.00,494,Wunderground v.1.15,2013-11-20 15:40:00,
2013-11-20 10:46:00,48.2,32.3,30.46,NE,55,7.0,8.0,54,0.00,,,0.00,364,Wunderground v.1.15,2013-11-20 15:46:00,
2013-11-20 10:52:00,49.1,33.2,30.46,NE,35,8.0,10.0,54,0.00,,,0.00,579,Wunderground v.1.15,2013-11-20 15:52:00,
2013-11-20 10:58:00,50.1,33.1,30.46,NE,34,8.0,12.0,52,0.00,,,0.00,524,Wunderground v.1.15,2013-11-20 15:58:00,
2013-11-20 11:04:00,49.4,32.0,30.45,NNE,18,9.0,11.0,51,0.00,,,0.00,531,Wunderground v.1.15,2013-11-20 16:04:00,
2013-11-20 11:10:00,49.5,32.1,30.45,NE,56,9.0,10.0,51,0.00,,,0.00,533,Wunderground v.1.15,2013-11-20 16:10:00,
2013-11-20 11:16:00,50.2,32.8,30.45,NNE,17,7.0,10.0,51,0.00,,,0.00,500,Wunderground v.1.15,2013-11-20 16:16:00,
2013-11-20 11:22:00,50.4,32.4,30.45,ENE,65,6.0,14.0,50,0.00,,,0.00,544,Wunderground v.1.15,2013-11-20 16:22:00,
2013-11-20 11:28:00,51.1,33.6,30.45,East,88,7.0,14.0,51,0.00,,,0.00,544,Wunderground v.1.15,2013-11-20 16:28:00,
2013-11-20 11:34:00,51.7,34.1,30.44,ENE,62,6.0,7.0,51,0.00,,,0.00,547,Wunderground v.1.15,2013-11-20 16:34:00,
2013-11-20 11:41:00,51.3,33.3,30.44,North,0,6.0,7.0,50,0.00,,,0.00,549,Wunderground v.1.15,2013-11-20 16:41:00,
2013-11-20 11:46:00,52.0,33.9,30.43,NNE,28,6.0,7.0,50,0.00,,,0.00,552,Wunderground v.1.15,2013-11-20 16:46:00,
2013-11-20 11:52:00,51.9,33.3,30.43,North,0,5.0,7.0,49,0.00,,,0.00,556,Wunderground v.1.15,2013-11-20 16:52:00,
2013-11-20 11:58:00,52.2,33.6,30.43,NW,312,5.0,10.0,49,0.00,,,0.00,554,Wunderground v.1.15,2013-11-20 16:58:00,
2013-11-20 12:04:00,51.9,34.3,30.43,ENE,59,7.0,9.0,51,0.00,,,0.00,552,Wunderground v.1.15,2013-11-20 17:04:00,
2013-11-20 12:10:00,52.3,33.7,30.43,North,10,7.0,7.0,49,0.00,,,0.00,552,Wunderground v.1.15,2013-11-20 17:10:00,
2013-11-20 12:16:00,52.3,33.7,30.43,East,92,7.0,12.0,49,0.00,,,0.00,538,Wunderground v.1.15,2013-11-20 17:16:00,
2013-11-20 12:22:00,52.8,34.2,30.43,North,359,5.0,8.0,49,0.00,,,0.00,549,Wunderground v.1.15,2013-11-20 17:22:00,
2013-11-20 12:28:00,52.9,33.2,30.43,NE,34,6.0,10.0,47,0.00,,,0.00,549,Wunderground v.1.15,2013-11-20 17:28:00,
2013-11-20 12:34:00,53.2,34.0,30.42,NNW,339,6.0,7.0,48,0.00,,,0.00,575,Wunderground v.1.15,2013-11-20 17:34:00,
2013-11-20 12:40:00,52.2,33.6,30.42,NE,35,6.0,8.0,49,0.00,,,0.00,230,Wunderground v.1.15,2013-11-20 17:40:00,
2013-11-20 12:46:00,51.6,34.5,30.42,ESE,109,5.0,8.0,52,0.00,,,0.00,253,Wunderground v.1.15,2013-11-20 17:46:00,
2013-11-20 12:52:00,52.2,34.1,30.42,NE,47,5.0,9.0,50,0.00,,,0.00,327,Wunderground v.1.15,2013-11-20 17:52:00,
2013-11-20 12:58:00,52.6,34.0,30.42,ENE,65,6.0,9.0,49,0.00,,,0.00,243,Wunderground v.1.15,2013-11-20 17:58:00,
2013-11-20 13:04:00,52.3,33.7,30.41,NE,41,5.0,10.0,49,0.00,,,0.00,234,Wunderground v.1.15,2013-11-20 18:04:00,
2013-11-20 13:10:00,51.9,34.3,30.41,NNE,23,6.0,7.0,51,0.00,,,0.00,246,Wunderground v.1.15,2013-11-20 18:10:00,
2013-11-20 13:16:00,51.6,33.6,30.41,North,7,7.0,7.0,50,0.00,,,0.00,222,Wunderground v.1.15,2013-11-20 18:16:00,
2013-11-20 13:22:00,51.6,34.0,30.41,NNE,27,6.0,7.0,51,0.00,,,0.00,282,Wunderground v.1.15,2013-11-20 18:22:00,
2013-11-20 13:28:00,52.2,34.6,30.41,ENE,58,7.0,12.0,51,0.00,,,0.00,185,Wunderground v.1.15,2013-11-20 18:28:00,
2013-11-20 13:34:00,51.9,33.8,30.40,NE,37,7.0,10.0,50,0.00,,,0.00,109,Wunderground v.1.15,2013-11-20 18:34:00,
2013-11-20 13:40:00,52.0,34.4,30.40,East,88,6.0,6.0,51,0.00,,,0.00,246,Wunderground v.1.15,2013-11-20 18:40:00,
2013-11-20 13:46:00,52.2,34.1,30.40,North,11,7.0,7.0,50,0.00,,,0.00,211,Wunderground v.1.15,2013-11-20 18:46:00,
2013-11-20 13:52:00,52.8,34.7,30.40,ENE,59,7.0,10.0,50,0.00,,,0.00,148,Wunderground v.1.15,2013-11-20 18:52:00,
2013-11-20 13:58:00,52.6,34.5,30.40,NNE,21,8.0,12.0,50,0.00,,,0.00,160,Wunderground v.1.15,2013-11-20 18:58:00,
2013-11-20 14:04:00,52.2,34.1,30.39,NE,54,8.0,10.0,50,0.00,,,0.00,222,Wunderground v.1.15,2013-11-20 19:04:00,
2013-11-20 14:10:00,52.6,34.5,30.39,NNE,27,7.0,7.0,50,0.00,,,0.00,227,Wunderground v.1.15,2013-11-20 19:10:00,
2013-11-20 14:16:00,52.9,34.8,30.39,NNE,25,6.0,10.0,50,0.00,,,0.00,187,Wunderground v.1.15,2013-11-20 19:16:00,
2013-11-20 14:22:00,52.5,34.4,30.39,NE,55,7.0,9.0,50,0.00,,,0.00,208,Wunderground v.1.15,2013-11-20 19:22:00,
2013-11-20 14:28:00,52.8,34.7,30.39,NNE,28,6.0,12.0,50,0.00,,,0.00,299,Wunderground v.1.15,2013-11-20 19:28:00,
2013-11-20 14:34:00,52.6,34.5,30.39,NE,54,7.0,10.0,50,0.00,,,0.00,144,Wunderground v.1.15,2013-11-20 19:34:00,
2013-11-20 14:41:00,52.5,34.9,30.39,NE,51,6.0,6.0,51,0.00,,,0.00,144,Wunderground v.1.15,2013-11-20 19:41:00,
2013-11-20 14:46:00,52.3,34.7,30.40,NE,37,7.0,8.0,51,0.00,,,0.00,144,Wunderground v.1.15,2013-11-20 19:46:00,
2013-11-20 14:52:00,52.6,35.0,30.40,East,83,6.0,7.0,51,0.00,,,0.00,183,Wunderground v.1.15,2013-11-20 19:52:00,
2013-11-20 14:58:00,52.8,34.7,30.40,NNE,17,5.0,12.0,50,0.00,,,0.00,135,Wunderground v.1.15,2013-11-20 19:58:00,
2013-11-20 15:04:00,52.8,34.7,30.40,East,85,7.0,10.0,50,0.00,,,0.00,158,Wunderground v.1.15,2013-11-20 20:04:00,
2013-11-20 15:11:00,53.1,34.9,30.40,NE,55,6.0,6.0,50,0.00,,,0.00,128,Wunderground v.1.15,2013-11-20 20:11:00,
2013-11-20 15:16:00,53.1,34.9,30.40,ENE,75,6.0,7.0,50,0.00,,,0.00,76,Wunderground v.1.15,2013-11-20 20:16:00,
2013-11-20 15:22:00,52.9,34.8,30.40,NE,49,6.0,6.0,50,0.00,,,0.00,83,Wunderground v.1.15,2013-11-20 20:22:00,
2013-11-20 15:28:00,52.6,35.0,30.40,NE,41,6.0,8.0,51,0.00,,,0.00,70,Wunderground v.1.15,2013-11-20 20:28:00,
2013-11-20 15:34:00,52.3,35.2,30.40,NNE,14,4.0,5.0,52,0.00,,,0.00,72,Wunderground v.1.15,2013-11-20 20:34:00,
2013-11-20 15:40:00,52.3,35.2,30.40,East,93,5.0,10.0,52,0.00,,,0.00,97,Wunderground v.1.15,2013-11-20 20:40:00,
2013-11-20 15:46:00,52.3,35.2,30.41,ESE,107,6.0,12.0,52,0.00,,,0.00,88,Wunderground v.1.15,2013-11-20 20:46:00,
2013-11-20 15:52:00,52.2,35.1,30.41,NE,38,6.0,7.0,52,0.00,,,0.00,91,Wunderground v.1.15,2013-11-20 20:52:00,
2013-11-20 15:58:00,52.3,35.2,30.41,NE,37,8.0,8.0,52,0.00,,,0.00,93,Wunderground v.1.15,2013-11-20 20:58:00,
2013-11-20 16:04:00,52.3,34.7,30.41,NNE,31,9.0,12.0,51,0.00,,,0.00,46,Wunderground v.1.15,2013-11-20 21:04:00,
2013-11-20 16:10:00,52.0,34.9,30.41,NE,49,9.0,11.0,52,0.00,,,0.00,37,Wunderground v.1.15,2013-11-20 21:10:00,
2013-11-20 16:16:00,51.6,35.0,30.41,East,83,8.0,12.0,53,0.00,,,0.00,49,Wunderground v.1.15,2013-11-20 21:16:00,
2013-11-20 16:22:00,51.3,35.2,30.41,NE,41,5.0,7.0,54,0.00,,,0.00,40,Wunderground v.1.15,2013-11-20 21:22:00,
2013-11-20 16:28:00,51.1,35.0,30.41,ESE,107,4.0,13.0,54,0.00,,,0.00,35,Wunderground v.1.15,2013-11-20 21:28:00,
2013-11-20 16:34:00,50.8,35.2,30.42,ENE,62,5.0,5.0,55,0.00,,,0.00,19,Wunderground v.1.15,2013-11-20 21:34:00,
2013-11-20 16:40:00,50.5,35.4,30.42,NE,48,4.0,5.0,56,0.00,,,0.00,18,Wunderground v.1.15,2013-11-20 21:40:00,
2013-11-20 16:46:00,50.2,35.5,30.42,ENE,65,3.0,7.0,57,0.00,,,0.00,18,Wunderground v.1.15,2013-11-20 21:46:00,
2013-11-20 16:52:00,49.8,35.2,30.42,ENE,64,3.0,5.0,57,0.00,,,0.00,14,Wunderground v.1.15,2013-11-20 21:52:00,
2013-11-20 16:58:00,49.5,35.3,30.42,ENE,62,4.0,5.0,58,0.00,,,0.00,12,Wunderground v.1.15,2013-11-20 21:58:00,
2013-11-20 17:04:00,49.2,35.5,30.42,ENE,59,4.0,4.0,59,0.00,,,0.00,7,Wunderground v.1.15,2013-11-20 22:04:00,
2013-11-20 17:10:00,48.8,35.5,30.42,East,85,2.0,2.0,60,0.00,,,0.00,5,Wunderground v.1.15,2013-11-20 22:10:00,
2013-11-20 17:16:00,48.5,35.2,30.43,ENE,66,2.0,5.0,60,0.00,,,0.00,0,Wunderground v.1.15,2013-11-20 22:16:00,
2013-11-20 17:22:00,48.2,35.4,30.43,ENE,66,2.0,2.0,61,0.00,,,0.00,0,Wunderground v.1.15,2013-11-20 22:22:00,
2013-11-20 17:28:00,47.7,35.3,30.43,ENE,66,1.0,2.0,62,0.00,,,0.00,0,Wunderground v.1.15,2013-11-20 22:28:00,
2013-11-20 17:34:00,47.4,35.4,30.42,NE,47,2.0,2.0,63,0.00,,,0.00,0,Wunderground v.1.15,2013-11-20 22:34:00,
2013-11-20 17:40:00,47.1,35.5,30.42,NE,47,2.0,2.0,64,0.00,,,0.00,0,Wunderground v.1.15,2013-11-20 22:40:00,
2013-11-20 17:46:00,46.8,35.3,30.42,NE,47,2.0,2.0,64,0.00,,,0.00,0,Wunderground v.1.15,2013-11-20 22:46:00,
2013-11-20 17:52:00,46.7,35.6,30.42,NNE,24,3.0,3.0,65,0.00,,,0.00,0,Wunderground v.1.15,2013-11-20 22:52:00,
2013-11-20 17:58:00,46.5,35.7,30.42,NNE,24,3.0,3.0,66,0.00,,,0.00,0,Wunderground v.1.15,2013-11-20 22:58:00,
2013-11-20 18:04:00,46.4,35.7,30.42,NNE,24,3.0,5.0,66,0.00,,,0.00,0,Wunderground v.1.15,2013-11-20 23:04:00,
2013-11-20 18:10:00,46.2,35.8,30.42,NNE,24,2.0,4.0,67,0.00,,,0.00,0,Wunderground v.1.15,2013-11-20 23:10:00,
2013-11-20 18:16:00,46.2,35.8,30.42,NNE,24,3.0,5.0,67,0.00,,,0.00,0,Wunderground v.1.15,2013-11-20 23:16:00,
2013-11-20 18:22:00,46.2,35.8,30.42,NNE,25,3.0,3.0,67,0.00,,,0.00,0,Wunderground v.1.15,2013-11-20 23:22:00,
2013-11-20 18:28:00,46.2,35.8,30.42,NNE,25,3.0,5.0,67,0.00,,,0.00,0,Wunderground v.1.15,2013-11-20 23:28:00,
2013-11-20 18:34:00,46.2,36.2,30.43,NNE,28,3.0,7.0,68,0.00,,,0.00,0,Wunderground v.1.15,2013-11-20 23:34:00,
2013-11-20 18:40:00,46.4,36.0,30.43,North,356,4.0,4.0,67,0.00,,,0.00,0,Wunderground v.1.15,2013-11-20 23:40:00,
2013-11-20 18:46:00,46.5,36.1,30.43,NNE,30,3.0,4.0,67,0.00,,,0.00,0,Wunderground v.1.15,2013-11-20 23:46:00,
2013-11-20 18:52:00,46.7,36.3,30.43,ENE,75,4.0,5.0,67,0.00,,,0.00,0,Wunderground v.1.15,2013-11-20 23:52:00,
2013-11-20 18:58:00,46.8,36.4,30.43,North,357,5.0,5.0,67,0.00,,,0.00,0,Wunderground v.1.15,2013-11-20 23:58:00,
2013-11-20 19:04:00,47.0,36.6,30.44,NE,35,4.0,6.0,67,0.00,,,0.00,0,Wunderground v.1.15,2013-11-21 00:04:00,
2013-11-20 19:11:00,47.1,36.7,30.44,NNE,28,4.0,4.0,67,0.00,,,0.00,0,Wunderground v.1.15,2013-11-21 00:11:00,
2013-11-20 19:16:00,47.1,36.7,30.43,NNE,32,6.0,7.0,67,0.00,,,0.00,0,Wunderground v.1.15,2013-11-21 00:16:00,
2013-11-20 19:22:00,47.1,37.1,30.43,NE,48,7.0,10.0,68,0.00,,,0.00,0,Wunderground v.1.15,2013-11-21 00:22:00,
2013-11-20 19:28:00,47.0,37.0,30.43,NNE,32,6.0,10.0,68,0.00,,,0.00,0,Wunderground v.1.15,2013-11-21 00:28:00,
2013-11-20 19:34:00,46.8,37.2,30.44,ENE,78,4.0,5.0,69,0.00,,,0.00,0,Wunderground v.1.15,2013-11-21 00:34:00,
2013-11-20 19:41:00,46.7,37.4,30.44,ENE,59,4.0,10.0,70,0.00,,,0.00,0,Wunderground v.1.15,2013-11-21 00:41:00,
2013-11-20 19:46:00,46.7,37.8,30.44,NE,54,5.0,10.0,71,0.00,,,0.00,0,Wunderground v.1.15,2013-11-21 00:46:00,
2013-11-20 19:52:00,46.7,37.8,30.44,East,88,5.0,5.0,71,0.00,,,0.00,0,Wunderground v.1.15,2013-11-21 00:52:00,
2013-11-20 19:58:00,46.7,38.1,30.44,NE,49,4.0,6.0,72,0.00,,,0.00,0,Wunderground v.1.15,2013-11-21 00:58:00,
2013-11-20 20:04:00,46.7,38.1,30.44,NNE,14,5.0,10.0,72,0.00,,,0.00,0,Wunderground v.1.15,2013-11-21 01:04:00,
2013-11-20 20:11:00,46.7,38.5,30.44,ENE,61,6.0,6.0,73,0.00,,,0.00,0,Wunderground v.1.15,2013-11-21 01:11:00,
2013-11-20 20:16:00,46.7,38.5,30.44,NNE,31,6.0,6.0,73,0.00,,,0.00,0,Wunderground v.1.15,2013-11-21 01:16:00,
2013-11-20 20:22:00,46.5,38.7,30.44,East,79,4.0,5.0,74,0.00,,,0.00,0,Wunderground v.1.15,2013-11-21 01:22:00,
2013-11-20 20:28:00,46.4,38.9,30.44,NNE,27,4.0,7.0,75,0.00,,,0.00,0,Wunderground v.1.15,2013-11-21 01:28:00,
2013-11-20 20:34:00,46.4,38.9,30.45,NE,35,4.0,4.0,75,0.00,,,0.00,0,Wunderground v.1.15,2013-11-21 01:34:00,
2013-11-20 20:40:00,46.4,39.2,30.45,NE,35,5.0,10.0,76,0.00,,,0.00,0,Wunderground v.1.15,2013-11-21 01:40:00,
2013-11-20 20:46:00,46.4,39.2,30.46,North,0,5.0,10.0,76,0.00,,,0.00,0,Wunderground v.1.15,2013-11-21 01:46:00,
2013-11-20 20:52:00,46.4,39.2,30.46,ENE,68,4.0,5.0,76,0.00,,,0.00,0,Wunderground v.1.15,2013-11-21 01:52:00,
2013-11-20 20:58:00,46.4,39.2,30.46,East,96,5.0,9.0,76,0.00,,,0.00,0,Wunderground v.1.15,2013-11-21 01:58:00,
2013-11-20 21:04:00,46.4,39.2,30.45,NE,37,5.0,5.0,76,0.00,,,0.00,0,Wunderground v.1.15,2013-11-21 02:04:00,
2013-11-20 21:10:00,46.4,39.6,30.45,NE,40,5.0,5.0,77,0.00,,,0.00,0,Wunderground v.1.15,2013-11-21 02:10:00,
2013-11-20 21:16:00,46.4,39.6,30.46,NNE,30,5.0,7.0,77,0.00,,,0.00,0,Wunderground v.1.15,2013-11-21 02:16:00,
2013-11-20 21:22:00,46.4,39.6,30.46,ESE,102,5.0,11.0,77,0.00,,,0.00,0,Wunderground v.1.15,2013-11-21 02:22:00,
2013-11-20 21:28:00,46.2,39.4,30.46,NE,35,4.0,11.0,77,0.00,,,0.00,0,Wunderground v.1.15,2013-11-21 02:28:00,
2013-11-20 21:34:00,46.2,39.4,30.46,North,10,4.0,6.0,77,0.00,,,0.00,0,Wunderground v.1.15,2013-11-21 02:34:00,
2013-11-20 21:40:00,46.2,39.4,30.46,ENE,61,4.0,4.0,77,0.00,,,0.00,0,Wunderground v.1.15,2013-11-21 02:40:00,
2013-11-20 21:46:00,46.1,39.3,30.45,NE,54,4.0,7.0,77,0.00,,,0.00,0,Wunderground v.1.15,2013-11-21 02:46:00,
2013-11-20 21:52:00,46.1,39.3,30.45,NE,44,5.0,8.0,77,0.00,,,0.00,0,Wunderground v.1.15,2013-11-21 02:52:00,
2013-11-20 21:58:00,46.0,39.2,30.45,NE,55,6.0,8.0,77,0.00,,,0.00,0,Wunderground v.1.15,2013-11-21 02:58:00,
2013-11-20 22:04:00,45.7,38.9,30.45,NE,44,5.0,6.0,77,0.00,,,0.00,0,Wunderground v.1.15,2013-11-21 03:04:00,
2013-11-20 22:10:00,45.5,39.0,30.45,NE,48,4.0,6.0,78,0.00,,,0.00,0,Wunderground v.1.15,2013-11-21 03:10:00,
2013-11-20 22:16:00,45.2,38.7,30.45,East,80,3.0,5.0,78,0.00,,,0.00,0,Wunderground v.1.15,2013-11-21 03:16:00,
2013-11-20 22:22:00,45.1,38.6,30.45,ENE,71,3.0,3.0,78,0.00,,,0.00,0,Wunderground v.1.15,2013-11-21 03:22:00,
2013-11-20 22:28:00,44.9,38.8,30.45,NE,47,4.0,4.0,79,0.00,,,0.00,0,Wunderground v.1.15,2013-11-21 03:28:00,
2013-11-20 22:34:00,44.6,38.5,30.45,NE,48,3.0,4.0,79,0.00,,,0.00,0,Wunderground v.1.15,2013-11-21 03:34:00,
2013-11-20 22:40:00,44.3,38.2,30.45,NE,47,3.0,5.0,79,0.00,,,0.00,0,Wunderground v.1.15,2013-11-21 03:40:00,
2013-11-20 22:46:00,44.2,38.4,30.45,NE,47,3.0,5.0,80,0.00,,,0.00,0,Wunderground v.1.15,2013-11-21 03:46:00,
2013-11-20 22:52:00,44.1,38.6,30.45,NE,56,4.0,5.0,81,0.00,,,0.00,0,Wunderground v.1.15,2013-11-21 03:52:00,
2013-11-20 22:58:00,43.8,38.3,30.45,NE,56,3.0,5.0,81,0.00,,,0.00,0,Wunderground v.1.15,2013-11-21 03:58:00,
2013-11-20 23:04:00,43.6,38.2,30.45,NE,42,3.0,6.0,81,0.00,,,0.00,0,Wunderground v.1.15,2013-11-21 04:04:00,
2013-11-20 23:10:00,43.5,38.4,30.45,NE,37,4.0,6.0,82,0.00,,,0.00,0,Wunderground v.1.15,2013-11-21 04:10:00,
2013-11-20 23:16:00,43.3,38.2,30.45,ENE,69,4.0,5.0,82,0.00,,,0.00,0,Wunderground v.1.15,2013-11-21 04:16:00,
2013-11-20 23:22:00,43.3,38.2,30.45,NE,35,4.0,4.0,82,0.00,,,0.00,0,Wunderground v.1.15,2013-11-21 04:22:00,
2013-11-20 23:28:00,43.3,38.5,30.45,NE,45,3.0,5.0,83,0.00,,,0.00,0,Wunderground v.1.15,2013-11-21 04:28:00,
2013-11-20 23:34:00,43.3,38.5,30.45,NE,41,3.0,4.0,83,0.00,,,0.00,0,Wunderground v.1.15,2013-11-21 04:34:00,
2013-11-20 23:40:00,43.2,38.4,30.45,NE,38,4.0,5.0,83,0.00,,,0.00,0,Wunderground v.1.15,2013-11-21 04:40:00,
2013-11-20 23:46:00,43.2,38.4,30.45,NE,38,4.0,4.0,83,0.00,,,0.00,0,Wunderground v.1.15,2013-11-21 04:46:00,
2013-11-20 23:52:00,43.1,38.3,30.45,NE,38,3.0,3.0,83,0.00,,,0.00,0,Wunderground v.1.15,2013-11-21 04:52:00,
2013-11-20 23:58:00,42.9,38.1,30.45,NNE,24,3.0,5.0,83,0.00,,,0.00,0,Wunderground v.1.15,2013-11-21 04:58:00,